Location: Asheville, NC
(35.6000°N, 82.5500°W)
Time: 22:56:31

FO-29 - Pass Details

Date: 18 March 2018
Orbit: 800 x 1321 km, 98.5° (Epoch: 20 March)

Event Time Altitude Azimuth Distance (km) Brightness Sun altitude
Rises 20:56:52 0° 15° (NNE) 4,133 12.7 -16.3°
Reaches altitude 10° 20:59:28 10° 18° (NNE) 3,218 12.1 -16.8°
Maximum altitude 21:07:00 69° 101° (ESE) 1,382 10.0 -18.3°
Drops below altitude 10° 21:14:50 10° 185° (S) 3,336 12.2 -19.8°
Sets 21:17:34 0° 187° (S) 4,293 12.8 -20.4°
